Location: Coopersdale
(40.3556°N, 78.9372°W)
Time: 08:33:51
(UTC+00:00)

Envisat - Pass Details

Date: 02 December 2020
Orbit: 764 x 766 km, 98.1° (Epoch: 15 January)

Event Time Altitude Azimuth Distance (km) Brightness Sun altitude
Rises 22:36:34 0° 176° (S) 3,217 6.5 -8.9°
Reaches altitude 10° 22:38:54 10° 180° (S) 2,295 5.8 -9.3°
Maximum altitude 22:43:53 58° 260° (W) 893 3.7 -10.2°
Drops below altitude 10° 22:48:54 10° 339° (NNW) 2,311 5.5 -11.1°
Sets 22:51:15 0° 343° (NNW) 3,242 6.2 -11.5°
